Regional Weather Roundup
Issued by NWS

Home | Current Version | Previous Version | Text Only | Print | Product List | Glossary On
Versions: 1 2 3 4 5 6 7 8 9 10 11 12 13 14 15 16 17 18 19 20 21 22 23 24 25 26 27 28 29 30 31 32 33 34 35 36 37 38 39 40 41 42 43 44 45 46 47 48 49 50
000
ASUS45 KBOU 302310
RWRCO

WEATHER ROUNDUP FOR COLORADO
NATIONAL WEATHER SERVICE DENVER/BOULDER CO
500 PM MDT FRI SEP 30 2016

NOTE: "FAIR" INDICATES FEW OR NO CLOUDS BELOW 12000 FEET WITH NO
SIGNIFICANT WEATHER AND/OR OBSTRUCTIONS TO VISIBILITY.

COZ001>005-013-030-031-010000-
...NORTHWEST COLORADO...

CITY           SKY/WX    TMP DP  RH WIND       PRES   REMARKS
CRAIG          TSTM      60  48  64 W7G16     30.25R
HAYDEN         FAIR      66  37  34 S8        30.25F
MEEKER         FAIR      67  42  40 VRB5      30.26S
MOUNT WERNER   NOT AVBL
STEAMBOAT SPGS CLOUDY    65  46  50 S9        30.28S
WALDEN           N/A     59  34  38 W14       30.34S
$$

COZ006>008-011-010000-
...WEST CENTRAL VALLEYS...

CITY           SKY/WX    TMP DP  RH WIND       PRES   REMARKS
GRAND JUNCTION FAIR      73  52  47 N5        30.18F
MONTROSE       PTSUNNY   67  48  50 W7        30.26F
EAGLE          MOSUNNY   68  39  34 W9        30.27F
RIFLE          FAIR      70  46  42 NW10      30.22S
DELTA          NOT AVBL
NUCLA          CLOUDY    68  45  42 W6        30.29S THUNDER
$$

COZ017>023-064>068-010000-
...SOUTHWEST COLORADO...

CITY           SKY/WX    TMP DP  RH WIND       PRES   REMARKS
DURANGO        FAIR      69  48  47 SW14      30.25F
CORTEZ         FAIR      71  48  43 W12       30.24S
PAGOSA SPRINGS FAIR      69  38  32 SW12      30.30S
TELLURIDE      PTSUNNY   56  40  55 CALM      30.43S
WOLF CREEK PAS PTSUNNY   45  36  70 MISG      30.58S
$$

COZ009-010-012-014-032>034-037-058>063-010000-
...CENTRAL COLORADO...

CITY           SKY/WX    TMP DP  RH WIND       PRES   REMARKS
ASPEN          PTSUNNY   62  37  39 SW8       30.32S
BUENA VISTA    FAIR      66  33  30 NW7       30.29F THUNDER
COPPER MTN     PTSUNNY   50  32  50 NW10G16   30.56S THUNDER
BERTHOUD PASS  HAZE      34  23  64 N15       30.58S THUNDER VSB<1/4
COTTONWOOD PAS FAIR      64  30  27 N3        30.41F THUNDER
GUNNISON       FAIR      64  40  41 SW5       30.30F
KREMMLING      CLOUDY    55  45  67 W3        30.34S
LEADVILLE      FAIR      54  33  45 NW10      30.41F
MONARCH PASS   FAIR      46  32  57 W20       30.65S
SALIDA         CLOUDY    61  51  69 S8        30.35R
SUNLIGHT       FAIR      48  41  76 W5        30.53S
WILKERSON PASS RAIN      41  36  81 S8        30.55S
$$

COZ069>075-010000-
...SAN LUIS VALLEY/SANGRE DE CRISTO MOUNTAINS...

CITY           SKY/WX    TMP DP  RH WIND       PRES   REMARKS
ALAMOSA        PTSUNNY   70  37  29 NW12      30.26S
LA VETA PASS   PTSUNNY   59  34  38 MISG      30.45R
SAGUACHE       FAIR      64  36  34 NW14      30.31R
$$

COZ035-036-038>040-010000-
...NORTHERN COLORADO FRONT RANGE...

CITY           SKY/WX    TMP DP  RH WIND       PRES   REMARKS
DENVER INTL AP PTSUNNY   73  43  33 NE7       30.18S
DMNS CITY PARK   N/A     71  42  35 NW6G13    30.19R
AURORA         PTSUNNY   74  44  34 N5        30.20S
FRONT RANGE AP PTSUNNY   73  45  35 N9G21     30.20S
ERIE MUNI ARPT PTSUNNY   74  42  31 N7        30.18R
BOULDER MUN AP FAIR      70  46  43 N3        30.18F
CENTENNIAL     PTSUNNY   70  42  36 N8        30.21R
BROOMFIELD     PTSUNNY   72  41  33 CALM      30.22R
FORT COLLINS   FAIR      72  46  40 SW8       30.14S
LONGMONT       FAIR      71  49  45 S3        30.19F
$$

COZ041-046-047-076>085-087-088-010000-
...PIKES PEAK/PALMER DIVIDE AND SOUTHERN FOOTHILLS...

CITY           SKY/WX    TMP DP  RH WIND       PRES   REMARKS
COLO. SPRINGS  PTSUNNY   71  41  33 N12       30.22R
A. F. ACADEMY  LGT RAIN  67  43  41 N12       30.24R
SCHRIEVER AFB  NOT AVBL
ELLICOTT       NOT AVBL
FALCON         FAIR      66  38  36 N10       30.27R
FORT CARSON    PTSUNNY   73  43  34 NW20      30.18R
LIMON          FAIR      74  41  30 N12       30.16F
MONUMENT HILL  FAIR      61  41  48 N10       30.29S
TRINIDAD       PTSUNNY   78  36  21 CALM      30.13S
$$

COZ042>045-048>051-090-091-010000-
...NORTHEAST COLORADO...

CITY           SKY/WX    TMP DP  RH WIND       PRES   REMARKS
GREELEY ARPT   FAIR      73  46  38 SE6       30.15S
AKRON          FAIR      71  43  36 SE14      30.15S
BURLINGTON     FAIR      72  45  37 E16       30.13S
WRAY           FAIR      72  45  37 E12       30.13S
STERLING       FAIR      72  45  37 SE9       30.11S
HOLYOKE        FAIR      73  45  35 SE13      30.14S
FORT MORGAN    FAIR      74  41  31 NE7       30.14S
$$

COZ086-089-092>099-010000-
...SOUTHEAST COLORADO...

CITY           SKY/WX    TMP DP  RH WIND       PRES   REMARKS
PUEBLO         CLOUDY    82  41  23 NE7       30.09R
LA JUNTA       FAIR      81  43  26 E7        30.06F
LAMAR          FAIR      87  41  19 S15       30.01F
SPRINGFIELD      N/A     75  48  38 SE15      30.09S
$$



USA.gov is the U.S. government's official web portal to all federal, state and local government web resources and services.